Time,TemperatureF,DewpointF,PressureIn,WindDirection,WindDirectionDegrees,WindSpeedMPH,WindSpeedGustMPH,Humidity,HourlyPrecipIn,Conditions,Clouds,dailyrainin,SoftwareType,DateUTC
2013-01-10 00:00:00,34.0,30.3,30.38,SSW,202,0.0,5.0,86,0.00,,,-99.99,Weather View 32 v60,2013-01-10 06:00:00,
2013-01-10 00:15:00,33.0,29.6,30.38,SW,225,0.0,5.0,87,0.00,,,-99.99,Weather View 32 v60,2013-01-10 06:15:00,
2013-01-10 00:30:00,33.0,29.6,30.38,SSW,202,0.0,5.0,87,0.00,,,-99.99,Weather View 32 v60,2013-01-10 06:30:00,
2013-01-10 00:45:00,32.0,28.8,30.38,WSW,247,0.0,3.0,88,0.00,,,-99.99,Weather View 32 v60,2013-01-10 06:45:00,
2013-01-10 01:00:00,31.0,27.9,30.38,SSW,202,0.0,2.0,88,0.00,,,-99.99,Weather View 32 v60,2013-01-10 07:00:00,
2013-01-10 01:15:00,31.0,27.9,30.37,SSW,202,0.0,2.0,88,0.00,,,-99.99,Weather View 32 v60,2013-01-10 07:15:00,
2013-01-10 01:30:00,30.0,26.9,30.38,SW,225,0.0,0.0,88,0.00,,,-99.99,Weather View 32 v60,2013-01-10 07:30:00,
2013-01-10 01:45:00,30.0,26.9,30.38,WSW,247,0.0,2.0,88,0.00,,,-99.99,Weather View 32 v60,2013-01-10 07:45:00,
2013-01-10 02:00:00,30.0,26.9,30.37,WSW,247,0.0,2.0,88,0.00,,,-99.99,Weather View 32 v60,2013-01-10 08:00:00,
2013-01-10 02:15:00,30.0,27.2,30.37,WSW,247,0.0,2.0,89,0.00,,,-99.99,Weather View 32 v60,2013-01-10 08:15:00,
2013-01-10 02:30:00,30.0,26.9,30.37,SW,225,0.0,4.0,88,0.00,,,-99.99,Weather View 32 v60,2013-01-10 08:30:00,
2013-01-10 02:45:00,31.0,27.9,30.36,SW,225,0.0,4.0,88,0.00,,,-99.99,Weather View 32 v60,2013-01-10 08:45:00,
2013-01-10 03:00:00,31.0,27.9,30.36,SW,225,0.0,5.0,88,0.00,,,-99.99,Weather View 32 v60,2013-01-10 09:00:00,
2013-01-10 03:15:00,31.0,28.1,30.35,SW,225,0.0,5.0,89,0.00,,,-99.99,Weather View 32 v60,2013-01-10 09:15:00,
2013-01-10 03:30:00,30.0,27.2,30.36,SW,225,0.0,5.0,89,0.00,,,-99.99,Weather View 32 v60,2013-01-10 09:30:00,
2013-01-10 03:45:00,30.0,27.2,30.35,SW,225,0.0,5.0,89,0.00,,,-99.99,Weather View 32 v60,2013-01-10 09:45:00,
2013-01-10 04:00:00,29.0,26.2,30.35,SW,225,0.0,2.0,89,0.00,,,-99.99,Weather View 32 v60,2013-01-10 10:00:00,
2013-01-10 04:15:00,29.0,26.2,30.35,SSW,202,0.0,1.0,89,0.00,,,-99.99,Weather View 32 v60,2013-01-10 10:15:00,
2013-01-10 04:30:00,30.0,27.2,30.34,WSW,247,0.0,2.0,89,0.00,,,-99.99,Weather View 32 v60,2013-01-10 10:30:00,
2013-01-10 04:45:00,30.0,27.2,30.33,WSW,247,0.0,2.0,89,0.00,,,-99.99,Weather View 32 v60,2013-01-10 10:45:00,
2013-01-10 05:00:00,29.0,26.2,30.32,SW,225,0.0,2.0,89,0.00,,,-99.99,Weather View 32 v60,2013-01-10 11:00:00,
2013-01-10 05:15:00,29.0,26.2,30.33,South,180,0.0,2.0,89,0.00,,,-99.99,Weather View 32 v60,2013-01-10 11:15:00,
2013-01-10 05:30:00,29.0,26.4,30.32,South,180,0.0,2.0,90,0.00,,,-99.99,Weather View 32 v60,2013-01-10 11:30:00,
2013-01-10 05:45:00,29.0,26.2,30.32,SE,135,0.0,0.0,89,0.00,,,-99.99,Weather View 32 v60,2013-01-10 11:45:00,
2013-01-10 06:00:00,29.0,26.2,30.31,SE,135,0.0,0.0,89,0.00,,,-99.99,Weather View 32 v60,2013-01-10 12:00:00,
2013-01-10 06:15:00,29.0,26.2,30.30,SSE,157,0.0,0.0,89,0.00,,,-99.99,Weather View 32 v60,2013-01-10 12:15:00,
2013-01-10 06:30:00,30.0,27.2,30.30,SSE,157,0.0,0.0,89,0.00,,,-99.99,Weather View 32 v60,2013-01-10 12:30:00,
2013-01-10 06:45:00,31.0,28.1,30.29,West,270,0.0,4.0,89,0.00,,,-99.99,Weather View 32 v60,2013-01-10 12:45:00,
2013-01-10 07:00:00,32.0,28.8,30.29,SSW,202,0.0,4.0,88,0.00,,,-99.99,Weather View 32 v60,2013-01-10 13:00:00,
2013-01-10 07:15:00,33.0,29.3,30.28,SSW,202,0.0,4.0,86,0.00,,,-99.99,Weather View 32 v60,2013-01-10 13:15:00,
2013-01-10 07:30:00,33.0,28.4,30.28,South,180,0.0,4.0,83,0.00,,,-99.99,Weather View 32 v60,2013-01-10 13:30:00,
2013-01-10 07:45:00,34.0,28.8,30.27,WSW,247,1.0,6.0,81,0.00,,,-99.99,Weather View 32 v60,2013-01-10 13:45:00,
2013-01-10 08:00:00,34.0,26.9,30.27,SE,135,0.0,6.0,75,0.00,,,-99.99,Weather View 32 v60,2013-01-10 14:00:00,
2013-01-10 08:15:00,35.0,26.9,30.26,South,180,0.0,6.0,72,0.00,,,-99.99,Weather View 32 v60,2013-01-10 14:15:00,
2013-01-10 08:30:00,36.0,26.8,30.25,SSW,202,0.0,6.0,69,0.00,,,-99.99,Weather View 32 v60,2013-01-10 14:30:00,
2013-01-10 08:45:00,36.0,26.8,30.25,SSW,202,4.0,6.0,69,0.00,,,-99.99,Weather View 32 v60,2013-01-10 14:45:00,
2013-01-10 09:00:00,36.0,26.1,30.25,SSW,202,0.0,8.0,67,0.00,,,-99.99,Weather View 32 v60,2013-01-10 15:00:00,
2013-01-10 09:15:00,37.0,26.3,30.24,SSE,157,1.0,10.0,65,0.00,,,-99.99,Weather View 32 v60,2013-01-10 15:15:00,
2013-01-10 09:30:00,37.0,26.3,30.23,SSW,202,0.0,10.0,65,0.00,,,-99.99,Weather View 32 v60,2013-01-10 15:30:00,
2013-01-10 09:45:00,38.0,26.1,30.22,WNW,292,1.0,10.0,62,0.00,,,-99.99,Weather View 32 v60,2013-01-10 15:45:00,
2013-01-10 10:01:00,39.0,26.3,30.20,SSW,202,0.0,10.0,60,0.00,,,-99.99,Weather View 32 v60,2013-01-10 16:01:00,
2013-01-10 10:15:00,39.0,24.6,30.19,SSW,202,0.0,9.0,56,0.00,,,-99.99,Weather View 32 v60,2013-01-10 16:15:00,
2013-01-10 10:30:00,40.0,25.1,30.17,WSW,247,0.0,9.0,55,0.00,,,-99.99,Weather View 32 v60,2013-01-10 16:30:00,
2013-01-10 10:45:00,41.0,24.7,30.16,SSE,157,1.0,10.0,52,0.00,,,-99.99,Weather View 32 v60,2013-01-10 16:45:00,
2013-01-10 11:01:00,41.0,24.7,30.16,West,270,0.0,12.0,52,0.00,,,-99.99,Weather View 32 v60,2013-01-10 17:01:00,
2013-01-10 11:15:00,41.0,25.6,30.16,SSW,202,1.0,12.0,54,0.00,,,-99.99,Weather View 32 v60,2013-01-10 17:15:00,
2013-01-10 11:30:00,41.0,26.5,30.15,East,90,2.0,12.0,56,0.00,,,-99.99,Weather View 32 v60,2013-01-10 17:30:00,
2013-01-10 11:45:00,40.0,29.5,30.13,SW,225,4.0,15.0,66,0.00,,,-99.99,Weather View 32 v60,2013-01-10 17:45:00,
2013-01-10 12:00:00,39.0,31.4,30.11,ENE,67,0.0,15.0,74,0.00,,,-99.99,Weather View 32 v60,2013-01-10 18:00:00,
2013-01-10 12:15:00,39.0,31.7,30.10,South,180,2.0,15.0,75,0.00,,,-99.99,Weather View 32 v60,2013-01-10 18:15:00,
2013-01-10 12:30:00,40.0,29.9,30.08,SSE,157,0.0,15.0,67,0.00,,,-99.99,Weather View 32 v60,2013-01-10 18:30:00,
2013-01-10 12:45:00,40.0,28.4,30.08,SSW,202,0.0,12.0,63,0.00,,,-99.99,Weather View 32 v60,2013-01-10 18:45:00,
2013-01-10 13:00:00,40.0,27.6,30.08,ESE,112,0.0,12.0,61,0.00,,,-99.99,Weather View 32 v60,2013-01-10 19:00:00,
2013-01-10 13:15:00,40.0,28.8,30.07,SW,225,0.0,7.0,64,0.00,,,-99.99,Weather View 32 v60,2013-01-10 19:15:00,
2013-01-10 13:30:00,40.0,29.2,30.06,SW,225,0.0,7.0,65,0.00,,,-99.99,Weather View 32 v60,2013-01-10 19:30:00,
2013-01-10 13:45:00,39.0,29.0,30.07,SW,225,0.0,7.0,67,0.00,,,-99.99,Weather View 32 v60,2013-01-10 19:45:00,
2013-01-10 14:00:00,39.0,30.4,30.07,SSW,202,0.0,7.0,71,0.00,,,-99.99,Weather View 32 v60,2013-01-10 20:00:00,
2013-01-10 14:15:00,38.0,31.1,30.06,SSE,157,0.0,6.0,76,0.00,,,-99.99,Weather View 32 v60,2013-01-10 20:15:00,
2013-01-10 14:30:00,38.0,31.1,30.06,SW,225,0.0,7.0,76,0.00,,,-99.99,Weather View 32 v60,2013-01-10 20:30:00,
2013-01-10 14:45:00,38.0,31.1,30.05,SW,225,0.0,7.0,76,0.00,,,-99.99,Weather View 32 v60,2013-01-10 20:45:00,
2013-01-10 15:00:00,38.0,32.1,30.04,WSW,247,0.0,7.0,79,0.01,,,-99.99,Weather View 32 v60,2013-01-10 21:00:00,
2013-01-10 15:15:00,38.0,32.7,30.03,SE,135,0.0,7.0,81,0.01,,,-99.99,Weather View 32 v60,2013-01-10 21:15:00,
2013-01-10 15:30:00,38.0,32.1,30.02,SSE,157,0.0,6.0,79,0.01,,,-99.99,Weather View 32 v60,2013-01-10 21:30:00,
2013-01-10 15:45:00,38.0,31.7,30.02,SSE,157,0.0,6.0,78,0.01,,,-99.99,Weather View 32 v60,2013-01-10 21:45:00,
2013-01-10 16:00:00,38.0,31.7,30.01,SSE,157,2.0,6.0,78,0.00,,,-99.99,Weather View 32 v60,2013-01-10 22:00:00,
2013-01-10 16:16:00,38.0,33.0,30.00,SSE,157,1.0,9.0,82,0.00,,,-99.99,Weather View 32 v60,2013-01-10 22:16:00,
2013-01-10 16:30:00,38.0,33.0,29.99,SSE,157,0.0,9.0,82,0.00,,,-99.99,Weather View 32 v60,2013-01-10 22:30:00,
2013-01-10 16:45:00,37.0,32.6,29.99,SSE,157,0.0,9.0,84,0.00,,,-99.99,Weather View 32 v60,2013-01-10 22:45:00,
2013-01-10 17:00:00,38.0,32.7,29.99,WNW,292,0.0,9.0,81,0.00,,,-99.99,Weather View 32 v60,2013-01-10 23:00:00,
2013-01-10 17:15:00,37.0,32.3,30.00,SW,225,0.0,9.0,83,0.00,,,-99.99,Weather View 32 v60,2013-01-10 23:15:00,
2013-01-10 17:30:00,37.0,32.6,29.99,SE,135,0.0,9.0,84,0.00,,,-99.99,Weather View 32 v60,2013-01-10 23:30:00,
2013-01-10 17:45:00,37.0,32.9,29.99,WSW,247,0.0,9.0,85,0.00,,,-99.99,Weather View 32 v60,2013-01-10 23:45:00,
2013-01-10 18:00:00,37.0,33.2,29.97,SSW,202,0.0,7.0,86,0.00,,,-99.99,Weather View 32 v60,2013-01-11 00:00:00,
2013-01-10 18:15:00,37.0,33.2,29.97,WSW,247,0.0,9.0,86,0.00,,,-99.99,Weather View 32 v60,2013-01-11 00:15:00,
2013-01-10 18:30:00,37.0,33.2,29.96,SSW,202,0.0,9.0,86,0.00,,,-99.99,Weather View 32 v60,2013-01-11 00:30:00,
2013-01-10 18:45:00,37.0,33.2,29.96,WSW,247,0.0,9.0,86,0.00,,,-99.99,Weather View 32 v60,2013-01-11 00:45:00,
2013-01-10 19:00:00,37.0,33.2,29.96,WSW,247,1.0,9.0,86,0.00,,,-99.99,Weather View 32 v60,2013-01-11 01:00:00,
2013-01-10 19:06:00,37.0,33.2,29.96,WSW,247,1.0,9.0,86,0.00,,,-99.99,Weather View 32 v60,2013-01-11 01:06:00,
2013-01-10 19:15:00,37.0,32.9,29.95,SW,225,0.0,10.0,85,0.00,,,-99.99,Weather View 32 v60,2013-01-11 01:15:00,
2013-01-10 19:30:00,36.0,31.6,29.95,SSW,202,2.0,10.0,84,0.00,,,-99.99,Weather View 32 v60,2013-01-11 01:30:00,
2013-01-10 19:45:00,36.0,31.3,29.95,SW,225,0.0,10.0,83,0.00,,,-99.99,Weather View 32 v60,2013-01-11 01:45:00,
2013-01-10 20:00:00,36.0,30.7,29.95,WSW,247,0.0,10.0,81,0.00,,,-99.99,Weather View 32 v60,2013-01-11 02:00:00,
2013-01-10 20:06:00,36.0,30.7,29.95,WSW,247,0.0,10.0,81,0.00,,,-99.99,Weather View 32 v60,2013-01-11 02:06:00,
2013-01-10 20:15:00,36.0,30.4,29.95,SSW,202,0.0,10.0,80,0.00,,,-99.99,Weather View 32 v60,2013-01-11 02:15:00,
2013-01-10 20:16:00,36.0,30.4,29.95,SSW,202,0.0,10.0,80,0.00,,,-99.99,Weather View 32 v60,2013-01-11 02:16:00,